1534676400.12,43628,23.06,74834.0,13.45,-2.11,-0.33,0,*77
1534676401.35,43629,23.0,74828.0,13.43,-2.63,-0.65,0,*76
1534676402.56,43630,23.06,74830.5,13.43,-2.23,-0.15,0,*7D
1534676403.8,43631,23.06,74830.5,13.41,-2.07,0.21,0,*52
1534676405.0,43632,23.0,74830.5,13.37,-2.19,0.29,0,*57
1534676406.24,43633,23.06,74830.0,13.37,-2.07,0.51,0,*56
1534676407.44,43634,23.06,74830.3,13.35,-3.07,-0.29,0,*70
1534676408.65,43635,23.0,74830.5,13.33,-3.55,-0.57,0,*79
1534676409.87,43636,23.06,74830.0,13.33,-4.29,-1.09,0,*4C
1534676411.09,43637,23.06,74828.0,13.29,-4.21,-0.93,0,*7C
1534676412.3,43638,23.0,74826.5,13.31,-3.87,-0.45,0,*7A
1534676413.5,43639,23.06,74828.3,13.29,-4.05,-0.49,0,*73
1534676414.75,43640,23.0,74828.5,13.27,-4.85,-1.09,0,*4E
1534676415.97,43641,23.06,74830.3,13.23,-5.19,-1.33,0,*46
1534676417.24,43642,23.06,74828.8,13.21,-5.23,-1.39,0,*44
1534676418.45,43643,23.06,74830.3,13.17,-4.49,-0.53,0,*70
1534676419.66,43644,23.0,74826.5,13.17,-3.95,0.05,0,*6F
1534676420.87,43645,23.06,74830.0,13.17,-3.95,0.09,0,*62
1534676422.08,43646,23.06,74828.8,13.11,-4.77,-0.57,0,*7A
1534676423.29,43647,23.0,74828.5,13.11,-5.07,-0.81,0,*76
1534676424.5,43648,23.06,74828.8,13.07,-5.35,-0.93,0,*7C
1534676425.72,43649,23.06,74830.3,13.05,-4.61,-0.19,0,*7D
1534676426.97,43650,23.0,74824.0,13.05,-3.83,0.55,0,*5B
1534676428.24,43651,23.0,74826.3,13.05,-3.55,0.91,0,*59
1534676429.45,43652,23.0,74828.8,13.03,-3.47,0.97,0,*59
1534676430.68,43653,23.0,74826.5,13.05,-3.55,1.01,0,*63
1534676431.9,43654,23.06,74830.3,13.03,-3.59,1.01,0,*6E
1534676433.11,43655,23.06,74830.0,13.03,-4.09,0.59,0,*51
1534676434.35,43656,23.06,74830.0,13.05,-4.61,0.21,0,*55
1534676435.56,43657,23.0,74826.5,13.03,-4.29,0.37,0,*59
1534676436.79,43658,23.0,74830.3,13.01,-4.81,0.01,0,*63
1534676438.0,43659,23.06,74830.5,12.99,-4.89,0.09,0,*62
1534676439.26,43660,23.06,74830.0,12.97,-4.69,0.29,0,*5A
1534676440.48,43661,23.06,74832.0,12.95,-3.83,1.17,0,*66
1534676441.69,43662,23.0,74830.0,12.95,-3.39,1.55,0,*62
1534676442.9,43663,23.0,74826.8,12.95,-3.15,2.01,0,*6F
1534676444.11,43664,23.06,74832.5,12.95,-3.19,2.01,0,*64
1534676445.33,43665,23.06,74830.8,12.95,-2.55,2.61,0,*6A
1534676446.57,43666,23.0,74830.0,12.95,-2.51,2.73,0,*6E
1534676447.83,43667,23.0,74826.5,12.97,-2.51,2.85,0,*64
1534676449.1,43668,23.0,74828.5,12.91,-2.47,2.81,0,*6E
1534676450.31,43669,23.06,74830.0,12.95,-2.27,3.11,0,*65
1534676451.52,43670,23.06,74830.0,12.95,-2.15,3.23,0,*6D
1534676452.73,43671,23.06,74830.5,12.99,-2.15,3.33,0,*61
1534676453.98,43672,23.0,74830.5,12.97,-2.31,3.33,0,*6A
1534676455.23,43673,23.0,74830.0,12.97,-2.19,3.41,0,*64
1534676456.49,43674,23.0,74828.3,12.97,-1.91,3.79,0,*6B
1534676457.71,43675,23.06,74830.8,12.97,-1.79,3.93,0,*68
1534676458.93,43676,23.0,74830.0,12.97,-1.75,4.23,0,*6B
1534676460.17,43677,23.06,74830.8,12.97,-1.43,4.41,0,*6B
1534676461.39,43678,23.0,74828.8,12.99,-1.63,4.31,0,*6F
1534676462.58,43679,23.0,74828.0,12.99,-1.79,4.27,0,*62
1534676463.85,43680,23.06,74830.8,13.01,-1.47,4.63,0,*69
1534676465.07,43681,23.0,74828.0,12.99,-0.85,5.19,0,*5B
1534676466.25,43682,23.06,74830.0,12.99,-0.61,5.49,0,*57
1534676467.45,43683,23.0,74828.0,12.99,-0.37,5.67,0,*59
1534676468.66,43684,23.06,74830.5,13.01,-0.37,5.71,0,*59
1534676469.9,43685,23.06,74832.0,13.01,-0.37,5.55,0,*5E
1534676471.12,43686,23.0,74828.5,13.03,0.13,5.93,0,*7E
1534676472.34,43687,23.06,74828.3,13.03,0.17,5.81,0,*78
1534676473.57,43688,23.06,74830.0,13.03,0.87,6.39,0,*7E
1534676474.8,43689,23.0,74826.0,13.03,0.75,5.93,0,*71
1534676476.0,43690,23.06,74830.8,13.01,0.09,5.11,0,*4A
1534676477.23,43691,23.0,74828.8,13.01,0.37,5.33,0,*76
1534676478.46,43692,23.0,74830.0,13.01,0.75,5.33,0,*73
1534676479.68,43693,23.0,74826.3,12.99,0.87,5.33,0,*7F
1534676480.87,43694,23.0,74828.3,12.99,1.05,5.37,0,*47
1534676482.08,43695,23.06,74828.5,12.99,1.43,5.67,0,*41
1534676483.3,43696,23.0,74828.3,12.99,1.59,5.59,0,*44
1534676484.55,43697,23.06,74830.3,12.97,1.29,5.15,0,*44
1534676485.8,43698,23.0,74826.0,12.97,1.37,5.07,0,*47
1534676486.99,43699,23.0,74828.8,12.95,1.41,5.19,0,*4A
1534676488.17,43700,23.06,74830.3,12.95,1.05,4.85,0,*4F
1534676489.36,43701,23.0,74826.5,12.95,1.01,4.85,0,*4A
1534676490.58,43702,23.06,74830.8,12.95,1.37,5.23,0,*41
1534676491.84,43703,23.06,74828.5,12.91,1.85,5.73,0,*48
1534676493.09,43704,23.06,74826.5,12.91,2.47,6.39,0,*4F
1534676494.33,43705,23.0,74824.8,12.95,2.47,6.43,0,*47
1534676495.55,43706,23.0,74824.0,12.95,2.69,6.61,0,*48
1534676496.79,43707,23.06,74824.3,12.97,2.95,6.91,0,*47
1534676498.0,43708,23.06,74830.5,12.97,2.95,6.93,0,*4A
1534676499.25,43709,23.06,74826.5,12.97,2.85,6.73,0,*44
1534676500.51,43710,23.06,74828.3,12.97,2.89,6.91,0,*4C
1534676501.72,43711,23.06,74826.3,13.01,2.91,6.83,0,*49
1534676502.92,43712,23.06,74824.5,13.01,2.99,6.83,0,*42
1534676504.16,43713,23.06,74822.5,13.03,3.15,7.11,0,*4E
1534676505.37,43714,23.06,74824.0,13.03,3.07,7.01,0,*4B
1534676506.6,43715,23.06,74826.3,13.05,2.81,6.79,0,*4D
1534676507.81,43716,23.06,74826.5,13.05,2.91,6.83,0,*4A
1534676509.07,43717,23.06,74824.3,13.05,3.19,7.15,0,*44
1534676510.28,43718,23.0,74826.0,13.05,3.29,7.33,0,*4C
1534676511.48,43719,23.0,74824.5,13.07,3.33,7.45,0,*45
1534676512.72,43720,23.0,74826.3,13.07,3.45,7.61,0,*48
1534676513.93,43721,23.0,74824.5,13.09,3.55,7.55,0,*41
1534676515.16,43722,23.0,74828.0,13.09,3.71,7.55,0,*44
1534676516.4,43723,23.06,74830.5,13.09,3.71,7.41,0,*40
1534676517.63,43724,23.0,74826.5,13.13,4.11,7.65,0,*4B
1534676518.84,43725,23.0,74820.8,13.11,4.57,7.87,0,*46
1534676520.07,43726,23.06,74830.5,13.13,4.57,7.77,0,*48
1534676521.33,43727,23.06,74830.0,13.17,5.05,8.13,0,*46
1534676522.56,43728,23.06,74828.3,13.17,5.37,8.13,0,*48
1534676523.73,43729,23.0,74826.8,13.19,5.59,8.19,0,*45
1534676524.94,43730,23.06,74830.0,13.19,5.81,8.19,0,*48
1534676526.17,43731,23.06,74830.5,13.17,5.89,8.15,0,*43
1534676527.41,43732,23.0,74826.5,13.17,5.77,7.91,0,*42
1534676528.64,43733,23.06,74828.3,13.19,5.93,7.87,0,*40
1534676529.83,43734,23.06,74832.3,13.19,6.03,7.97,0,*4C
1534676531.04,43735,23.06,74830.5,13.19,6.51,8.27,0,*4E
1534676532.28,43736,23.06,74828.3,13.19,6.87,8.55,0,*43
1534676533.48,43737,23.0,74830.8,13.19,7.09,8.71,0,*43
1534676534.69,43738,23.06,74828.0,13.23,7.19,8.69,0,*4D
1534676535.92,43739,23.06,74832.3,13.23,7.19,8.59,0,*4F
1534676537.13,43740,23.0,74830.5,13.21,7.37,8.61,0,*44
1534676538.32,43741,23.0,74828.0,13.23,7.29,8.45,0,*4E
1534676539.55,43742,23.06,74830.3,13.25,7.19,8.33,0,*49
1534676540.75,43743,23.06,74830.5,13.25,7.41,8.37,0,*41
1534676541.96,43744,23.06,74830.5,13.25,7.69,8.69,0,*47
1534676543.2,43745,23.0,74828.0,13.25,7.61,8.55,0,*41
1534676544.39,43746,23.06,74830.5,13.25,7.79,8.69,0,*44
1534676545.64,43747,23.06,74834.0,13.27,7.91,8.71,0,*48
1534676546.84,43748,23.0,74830.5,13.27,7.79,8.61,0,*40
1534676548.05,43749,23.06,74830.5,13.27,8.01,8.79,0,*48
1534676549.3,43750,23.06,74830.5,13.27,7.95,8.71,0,*4A
1534676550.53,43751,23.0,74830.5,13.29,7.95,8.71,0,*45
1534676551.73,43752,23.0,74828.8,13.29,8.05,8.75,0,*44
1534676552.97,43753,23.06,74830.5,13.31,7.73,8.45,0,*41
1534676554.23,43754,23.0,74830.0,13.31,7.61,8.41,0,*41
1534676555.49,43755,23.0,74830.5,13.31,7.73,8.41,0,*43
1534676556.73,43756,23.06,74828.3,13.29,7.77,8.51,0,*4C
1534676557.91,43757,23.06,74830.0,13.29,8.05,8.83,0,*48
1534676559.15,43758,23.06,74828.5,13.31,8.23,8.89,0,*40
1534676560.36,43759,23.06,74830.5,13.31,7.55,8.19,0,*46
1534676561.57,43760,23.06,74830.8,13.31,7.45,8.09,0,*4C
1534676562.81,43761,23.0,74828.8,13.31,7.79,8.55,0,*4B
1534676564.02,43762,23.06,74828.0,13.31,8.09,8.69,0,*4F
1534676565.22,43763,23.0,74828.3,13.33,8.13,8.69,0,*47
1534676566.43,43764,23.06,74828.0,13.33,7.97,8.59,0,*40
1534676567.65,43765,23.06,74830.0,13.35,7.91,8.69,0,*42
1534676568.86,43766,23.0,74830.8,13.35,8.23,8.83,0,*43
1534676570.07,43767,23.0,74828.0,13.35,8.23,8.79,0,*47
1534676571.32,43768,23.06,74828.0,13.35,8.33,8.89,0,*46
1534676572.55,43769,23.06,74830.5,13.37,8.37,8.89,0,*41
1534676573.73,43770,23.0,74826.0,13.37,8.15,8.61,0,*4F
1534676574.92,43771,23.06,74830.8,13.37,8.23,8.79,0,*42
1534676576.13,43772,23.0,74826.3,13.41,8.27,8.75,0,*48
1534676577.36,43773,23.0,74828.8,13.41,8.47,8.97,0,*43
1534676578.56,43774,23.06,74828.3,13.41,8.51,9.03,0,*4F
1534676579.79,43775,23.0,74824.8,13.43,8.45,9.01,0,*4B
1534676581.02,43776,23.06,74828.3,13.45,8.33,8.75,0,*4D
1534676582.25,43777,23.0,74826.3,13.45,7.73,8.13,0,*47
1534676583.47,43778,23.06,74828.5,13.43,7.97,8.29,0,*4D
1534676584.68,43779,23.06,74830.0,13.45,8.33,8.87,0,*4F
1534676585.89,43780,23.06,74832.5,13.45,8.19,8.55,0,*4E
1534676587.13,43781,23.06,74830.0,13.47,8.23,8.59,0,*48
1534676588.38,43782,23.0,74824.8,13.47,8.37,8.71,0,*44
1534676589.61,43783,23.0,74828.5,13.47,8.45,8.71,0,*40
1534676590.84,43784,23.0,74826.5,13.49,8.47,8.71,0,*4B
1534676592.04,43785,23.06,74826.5,13.49,8.19,8.47,0,*44
1534676593.3,43786,23.06,74828.0,13.51,8.37,8.59,0,*4D
1534676594.5,43787,23.0,74826.5,13.51,8.83,9.03,0,*4D
1534676595.75,43788,23.0,74824.3,13.51,8.93,8.97,0,*4F
1534676596.93,43789,23.06,74832.3,13.53,8.61,8.69,0,*40
1534676598.13,43790,23.06,74828.8,13.55,8.65,8.79,0,*4B
1534676599.38,43791,23.06,74830.3,13.55,9.01,9.11,0,*46
1534676600.61,43792,23.06,74830.0,13.59,9.15,9.15,0,*48
1534676601.85,43793,23.06,74830.3,13.59,8.93,8.93,0,*49
1534676603.05,43794,23.06,74828.3,13.63,9.21,9.19,0,*4C
1534676604.27,43795,23.0,74828.8,13.63,8.97,8.87,0,*47
1534676605.53,43796,23.06,74830.3,13.65,9.11,9.01,0,*42
1534676606.74,43797,23.06,74828.3,13.67,9.03,8.89,0,*43
1534676607.92,43798,23.0,74826.5,13.71,9.75,9.63,0,*4F
1534676609.09,43799,23.06,74830.0,13.71,9.95,9.63,0,*40
1534676610.34,43800,23.06,74828.0,13.73,10.09,9.85,0,*78
1534676611.56,43801,23.0,74824.0,13.75,10.75,10.55,0,*41
1534676612.81,43802,23.06,74830.8,13.85,11.17,10.83,0,*43
1534676614.03,43803,23.06,74828.0,13.87,11.31,10.89,0,*4E
1534676615.25,43804,23.06,74830.5,13.93,11.41,11.17,0,*4D
1534676616.49,43805,23.06,74830.8,13.97,11.95,11.41,0,*42
1534676617.71,43806,23.06,74830.8,14.01,11.99,11.45,0,*41
1534676618.96,43807,23.06,74828.3,14.05,12.05,11.45,0,*42
1534676620.23,43808,23.06,74830.0,14.15,12.37,11.61,0,*4B
1534676621.49,43809,23.06,74830.8,14.19,12.29,11.31,0,*4C
1534676622.74,43810,23.06,74826.3,14.25,12.39,11.37,0,*4C
1534676624.01,43811,23.06,74830.3,14.33,12.09,10.95,0,*40
1534676625.27,43812,23.0,74824.5,14.37,11.37,10.05,0,*40
1534676626.52,43813,23.06,74826.5,14.41,11.21,9.81,0,*73
1534676627.78,43814,23.06,74828.8,14.45,11.31,9.89,0,*79
1534676628.99,43815,23.06,74830.0,14.53,11.51,10.03,0,*43
1534676630.24,43816,23.06,74828.5,14.55,11.27,9.61,0,*7B
1534676631.48,43817,23.06,74830.5,14.63,11.27,9.71,0,*7E
1534676632.69,43818,23.06,74830.3,14.65,11.03,9.43,0,*70
1534676633.93,43819,23.06,74832.0,14.69,10.75,9.11,0,*7A
1534676635.17,43820,23.06,74828.3,14.75,11.23,9.67,0,*7E
1534676636.39,43821,23.06,74828.3,14.81,11.09,9.57,0,*7F
1534676637.62,43822,23.06,74828.0,14.85,11.57,10.05,0,*4C
1534676638.84,43823,23.06,74828.5,14.89,11.93,10.65,0,*4F
1534676640.08,43824,23.06,74828.5,14.99,11.65,10.41,0,*46
1534676641.32,43825,23.06,74830.3,15.07,12.47,11.37,0,*42
1534676642.56,43826,23.06,74828.8,15.13,12.71,11.75,0,*47
1534676643.79,43827,23.06,74830.5,15.25,12.71,11.81,0,*48
1534676644.98,43828,23.06,74828.8,15.31,12.81,11.93,0,*4E
1534676646.2,43829,23.0,74824.0,15.37,12.73,12.03,0,*4E
1534676647.44,43830,23.06,74828.3,15.47,12.29,11.79,0,*40
1534676648.71,43831,23.06,74828.5,15.55,12.97,12.63,0,*4F
1534676649.95,43832,23.0,74822.8,15.63,13.01,12.81,0,*4B
1534676651.16,43833,23.06,74828.3,15.73,13.31,13.41,0,*45
1534676652.43,43834,23.0,74826.8,15.81,13.31,13.55,0,*4A
1534676653.66,43835,23.06,74828.5,15.93,13.61,14.09,0,*43
1534676654.85,43836,23.06,74830.0,16.03,14.09,14.65,0,*49
1534676656.09,43837,23.06,74828.5,16.13,13.85,14.69,0,*46
1534676657.34,43838,23.06,74826.5,16.21,14.05,14.91,0,*40
1534676658.59,43839,23.0,74826.0,16.33,13.45,14.41,0,*4C
1534676659.86,43840,23.06,74828.5,16.41,12.63,13.85,0,*4D
1534676661.06,43841,23.06,74830.8,16.49,13.07,14.35,0,*4B
1534676662.28,43842,23.06,74828.3,16.59,12.81,14.31,0,*42
1534676663.53,43843,23.06,74826.5,16.63,12.51,13.91,0,*4A
1534676664.79,43844,23.06,74824.0,16.71,12.53,13.99,0,*44
1534676666.01,43845,23.06,74830.3,16.75,12.77,14.35,0,*46
1534676667.28,43846,23.06,74828.3,16.85,13.31,14.79,0,*41
1534676668.51,43847,23.06,74830.3,16.91,13.15,14.45,0,*4C
1534676669.76,43848,23.06,74828.3,16.97,12.91,14.09,0,*40
1534676671.0,43849,23.06,74828.8,17.01,12.33,13.49,0,*44
1534676672.21,43850,23.06,74830.3,17.07,12.23,13.21,0,*45
1534676673.48,43851,23.06,74826.3,17.11,12.17,12.83,0,*4D
1534676674.73,43852,23.06,74830.0,17.15,11.93,12.37,0,*4A
1534676675.91,43853,23.06,74828.3,17.17,11.81,11.93,0,*47
1534676677.15,43854,23.06,74830.5,17.19,11.95,11.65,0,*42
1534676678.42,43855,23.06,74830.5,17.23,11.79,11.33,0,*4B
1534676679.65,43856,23.06,74828.3,17.27,11.47,10.55,0,*40
1534676680.87,43857,23.06,74830.5,17.29,10.41,9.15,0,*74
1534676682.11,43858,23.06,74824.8,17.33,9.81,8.33,0,*41
1534676683.31,43859,23.06,74826.3,17.33,9.77,8.01,0,*48
1534676684.51,43860,23.06,74830.8,17.33,8.89,7.01,0,*4D
1534676685.69,43861,23.06,74828.8,17.33,8.79,6.83,0,*48
1534676686.9,43862,23.06,74830.0,17.33,8.37,6.33,0,*4A
1534676688.13,43863,23.06,74826.3,17.33,7.91,5.85,0,*46
1534676689.33,43864,23.06,74828.8,17.33,8.01,5.85,0,*47
1534676690.53,43865,23.06,74828.3,17.33,6.75,4.59,0,*4B
1534676691.76,43866,23.06,74828.0,17.33,6.69,4.59,0,*45
1534676693.02,43867,23.06,74824.5,17.35,6.61,4.63,0,*43
1534676694.26,43868,23.06,74828.3,17.33,6.65,4.79,0,*45
1534676695.45,43869,23.06,74824.8,17.33,6.97,5.15,0,*42
1534676696.64,43870,23.06,74828.3,17.33,6.29,4.45,0,*4B
1534676697.83,43871,23.06,74828.0,17.33,6.33,4.57,0,*42
1534676699.01,43872,23.06,74828.0,17.33,6.07,4.33,0,*44
1534676700.21,43873,23.06,74828.0,17.33,7.11,5.41,0,*47
1534676701.42,43874,23.06,74832.0,17.33,7.15,5.49,0,*4C
1534676702.68,43875,23.06,74826.5,17.35,7.61,5.93,0,*4F
1534676703.9,43876,23.06,74828.8,17.39,8.33,6.83,0,*4A
1534676705.12,43877,23.06,74830.3,17.41,9.25,7.77,0,*48
1534676706.32,43878,23.06,74828.0,17.49,9.35,7.97,0,*40
1534676707.58,43879,23.06,74826.8,17.51,9.77,8.33,0,*4F
1534676708.83,43880,23.06,74828.0,17.55,8.71,7.23,0,*44
1534676710.06,43881,23.06,74826.5,17.59,9.33,7.83,0,*44
1534676711.29,43882,23.06,74828.0,17.63,9.61,8.15,0,*49
1534676712.54,43883,23.06,74824.8,17.67,9.39,7.83,0,*41
1534676713.73,43884,23.06,74830.3,17.75,9.75,8.19,0,*41
1534676714.93,43885,23.06,74828.0,17.79,9.61,7.97,0,*40
1534676716.16,43886,23.06,74828.0,17.85,8.65,7.19,0,*43
1534676717.36,43887,23.06,74830.0,17.89,8.87,7.45,0,*4B
1534676718.56,43888,23.06,74828.3,17.95,8.51,7.33,0,*43
1534676719.79,43889,23.06,74830.0,17.99,9.85,8.97,0,*47
1534676721.01,43890,23.06,74826.8,18.05,10.51,9.81,0,*72
1534676722.25,43891,23.06,74828.5,18.13,10.79,10.37,0,*4B
1534676723.43,43892,23.06,74830.3,18.21,9.99,9.63,0,*46
1534676724.63,43893,23.06,74830.5,18.29,9.77,9.63,0,*4F
1534676725.81,43894,23.06,74828.0,18.33,9.67,9.71,0,*41
1534676727.04,43895,23.06,74828.0,18.43,10.33,10.79,0,*4E
1534676728.28,43896,23.06,74830.8,18.49,10.09,10.75,0,*42
1534676729.49,43897,23.06,74826.8,18.55,9.91,10.61,0,*72
1534676730.73,43898,23.06,74828.3,18.63,9.39,10.27,0,*78
1534676731.92,43899,23.06,74828.8,18.73,9.47,10.43,0,*73
1534676733.13,43900,23.06,74826.3,18.75,8.05,9.03,0,*4F
1534676734.32,43901,23.06,74826.8,18.77,8.15,9.25,0,*49
1534676735.54,43902,23.06,74828.3,18.81,9.01,10.13,0,*7A
1534676736.79,43903,23.06,74828.5,18.89,9.49,10.61,0,*7A
1534676738.03,43904,23.06,74830.3,18.95,8.47,9.75,0,*42
1534676739.24,43905,23.06,74830.8,18.97,8.51,9.91,0,*4C
1534676740.43,43906,23.06,74830.3,19.03,9.33,10.69,0,*79
1534676741.62,43907,23.06,74828.0,19.11,9.07,10.43,0,*74
1534676742.88,43908,23.06,74830.3,19.13,8.13,9.57,0,*40
1534676744.07,43909,23.06,74828.5,19.15,7.69,9.29,0,*4C
1534676745.25,43910,23.06,74830.3,19.23,9.33,10.85,0,*7E
1534676746.46,43911,23.06,74828.5,19.31,9.25,10.79,0,*78
1534676747.7,43912,23.06,74830.3,19.33,8.29,9.85,0,*4F
1534676748.9,43913,23.06,74828.3,19.37,7.69,9.29,0,*47
1534676750.11,43914,23.06,74826.5,19.41,8.33,9.95,0,*46
1534676751.36,43915,23.06,74830.8,19.43,8.47,10.17,0,*74
1534676752.6,43916,23.06,74824.0,19.47,8.51,10.05,0,*77
1534676753.81,43917,23.06,74824.8,19.53,8.23,9.77,0,*4B
1534676755.02,43918,23.06,74830.0,19.57,7.23,8.83,0,*45
1534676756.22,43919,23.06,74832.5,19.57,6.53,8.27,0,*4C
1534676757.41,43920,23.06,74828.8,19.61,6.11,7.79,0,*41
1534676758.61,43921,23.06,74830.5,19.61,6.83,8.51,0,*4E
1534676759.85,43922,23.06,74826.3,19.61,7.77,9.53,0,*44
1534676761.11,43923,23.06,74828.0,19.65,7.73,9.49,0,*4E
1534676762.32,43924,23.06,74828.5,19.67,6.79,8.47,0,*4F
1534676763.53,43925,23.06,74828.3,19.69,6.97,8.65,0,*40
1534676764.79,43926,23.06,74828.0,19.69,8.51,10.27,0,*78
1534676766.01,43927,23.06,74828.0,19.75,10.13,11.75,0,*4D
1534676767.22,43928,23.06,74828.3,19.79,10.71,12.27,0,*4E
1534676768.46,43929,23.06,74834.0,19.87,10.27,11.61,0,*4C
1534676769.69,43930,23.06,74826.8,19.91,9.35,10.75,0,*7C
1534676770.89,43931,23.06,74828.8,19.95,9.61,10.89,0,*7B
1534676772.09,43932,23.06,74828.8,19.99,9.33,10.47,0,*71
1534676773.3,43933,23.06,74828.8,20.01,9.67,10.85,0,*74
1534676774.57,43934,23.06,74828.8,20.05,9.81,10.99,0,*72
1534676775.83,43935,23.06,74828.0,20.13,10.65,11.79,0,*49
1534676777.11,43936,23.06,74830.8,20.17,11.61,12.83,0,*4D
1534676778.33,43937,23.06,74830.3,20.23,12.29,13.45,0,*4F
1534676779.58,43938,23.06,74830.3,20.31,11.85,12.83,0,*4D
1534676780.79,43939,23.06,74830.5,20.35,11.65,12.51,0,*49
1534676782.02,43940,23.06,74830.3,20.43,11.85,12.81,0,*45
1534676783.27,43941,23.06,74826.5,20.45,11.45,12.33,0,*47
1534676784.5,43942,23.06,74828.0,20.51,11.21,12.17,0,*45
1534676785.72,43943,23.06,74830.5,20.57,11.79,12.81,0,*40
1534676786.96,43944,23.06,74830.5,20.61,11.17,11.95,0,*4C
1534676788.17,43945,23.06,74830.0,20.67,10.61,11.51,0,*43
1534676789.39,43946,23.06,74828.5,20.71,12.13,13.15,0,*42
1534676790.61,43947,23.06,74830.5,20.75,13.07,14.19,0,*48
1534676791.83,43948,23.06,74828.0,20.83,12.05,13.15,0,*46
1534676793.08,43949,23.06,74830.0,20.89,12.13,13.31,0,*4C
1534676794.32,43950,23.06,74830.5,20.95,12.29,13.49,0,*4F
1534676795.57,43951,23.06,74828.3,20.99,11.17,12.37,0,*44
1534676796.82,43952,23.06,74828.0,21.03,9.57,10.99,0,*7E
1534676798.02,43953,23.06,74832.3,21.05,9.57,11.09,0,*71
1534676799.28,43954,23.06,74830.5,21.11,9.81,11.45,0,*70
1534676800.49,43955,23.06,74828.8,21.11,10.51,12.27,0,*43
1534676801.75,43956,23.06,74828.0,21.15,9.77,11.57,0,*7C
1534676802.96,43957,23.06,74828.8,21.19,10.09,11.99,0,*42
1534676804.21,43958,23.06,74828.8,21.23,11.13,13.17,0,*4A
1534676805.45,43959,23.06,74832.0,21.27,11.17,13.51,0,*49
1534676806.73,43960,23.06,74830.5,21.35,11.27,13.55,0,*47
1534676808.0,43961,23.06,74828.0,21.39,10.65,13.01,0,*4C
1534676809.24,43962,23.06,74830.3,21.41,10.57,12.91,0,*49
1534676810.47,43963,23.06,74830.3,21.47,9.75,12.23,0,*7F
1534676811.69,43964,23.06,74832.3,21.49,10.23,12.81,0,*45
1534676812.94,43965,23.06,74834.0,21.53,10.37,13.05,0,*47
1534676814.19,43966,23.06,74832.3,21.59,11.37,13.99,0,*4A
1534676815.43,43967,23.06,74828.0,21.63,11.47,14.21,0,*41
1534676816.68,43968,23.06,74830.5,21.69,10.85,13.69,0,*40
1534676817.9,43969,23.06,74830.5,21.75,11.37,14.35,0,*4A
1534676819.13,43970,23.06,74830.5,21.81,11.09,13.89,0,*44
1534676820.37,43971,23.06,74828.8,21.85,10.93,13.95,0,*4E
1534676821.58,43972,23.06,74828.8,21.89,9.75,12.91,0,*74
1534676822.82,43973,23.06,74828.8,21.89,9.11,12.37,0,*7B
1534676824.01,43974,23.06,74832.5,21.93,10.17,13.41,0,*49
1534676825.26,43975,23.06,74830.5,21.93,10.61,13.91,0,*44
1534676826.48,43976,23.06,74832.3,21.99,9.47,12.81,0,*71
1534676827.66,43977,23.06,74828.8,22.05,9.95,13.49,0,*7C
1534676828.9,43978,23.06,74830.3,22.07,10.65,14.09,0,*45
1534676830.1,43979,23.06,74832.0,22.09,11.51,15.09,0,*4D
1534676831.35,43980,23.06,74830.0,22.13,11.37,14.95,0,*44
1534676832.61,43981,23.06,74828.8,22.17,11.33,14.95,0,*45
1534676833.86,43982,23.06,74830.8,22.21,11.45,15.05,0,*4A
1534676835.11,43983,23.13,74832.8,22.27,12.05,15.75,0,*4D
1534676836.35,43984,23.06,74828.5,22.33,13.27,16.95,0,*43
1534676837.57,43985,23.06,74828.0,22.39,13.31,16.95,0,*4F
1534676838.81,43986,23.06,74830.3,22.49,13.81,17.57,0,*4F
1534676840.04,43987,23.06,74828.3,22.53,13.61,17.25,0,*4E
1534676841.24,43988,23.06,74832.5,22.59,13.71,17.33,0,*4D
1534676842.48,43989,23.06,74830.3,22.63,14.29,17.89,0,*4E
1534676843.7,43990,23.06,74830.0,22.73,14.05,17.57,0,*4A
1534676844.94,43991,23.06,74832.0,22.77,15.05,18.71,0,*45
1534676846.16,43992,23.06,74830.5,22.85,15.65,19.17,0,*4C
1534676847.42,43993,23.06,74828.5,22.95,16.01,19.51,0,*4F
1534676848.68,43994,23.06,74830.3,23.03,16.17,19.55,0,*45
1534676849.95,43995,23.06,74834.0,23.11,15.45,19.01,0,*42
1534676851.2,43996,23.13,74832.3,23.21,14.19,17.57,0,*47
1534676852.44,43997,23.13,74834.0,23.23,12.17,15.15,0,*48
1534676853.66,43998,23.06,74832.0,23.23,10.95,14.31,0,*48
1534676854.87,43999,23.06,74834.0,23.23,10.51,13.85,0,*49
1534676856.06,44000,23.06,74830.5,23.23,9.99,13.25,0,*71
1534676857.27,44001,23.06,74828.8,23.23,10.89,14.19,0,*41
1534676858.5,44002,23.06,74832.5,23.23,11.41,14.39,0,*45
1534676859.69,44003,23.06,74834.8,23.23,11.51,14.69,0,*40
1534676860.94,44004,23.06,74828.0,23.23,12.13,15.11,0,*4C
1534676862.16,44005,23.06,74830.3,23.25,12.61,15.47,0,*4D
1534676863.42,44006,23.06,74830.0,23.29,13.31,16.23,0,*47
1534676864.7,44007,23.06,74834.0,23.29,13.91,16.75,0,*4F
1534676865.97,44008,23.06,74830.3,23.33,14.41,17.11,0,*42
1534676867.21,44009,23.06,74830.0,23.41,14.89,17.47,0,*41
1534676868.43,44010,23.06,74832.5,23.45,14.65,17.21,0,*4F
1534676869.64,44011,23.06,74834.5,23.47,14.75,17.25,0,*49
1534676870.84,44012,23.06,74832.8,23.53,14.31,16.69,0,*46
1534676872.05,44013,23.06,74832.3,23.55,14.65,16.95,0,*43
1534676873.29,44014,23.06,74830.3,23.61,14.55,16.85,0,*41
1534676874.48,44015,23.06,74830.3,23.65,14.89,17.21,0,*4A
1534676875.67,44016,23.06,74830.3,23.69,15.91,17.99,0,*4E
1534676876.89,44017,23.06,74832.0,23.73,16.13,18.25,0,*45
1534676878.11,44018,23.06,74828.8,23.77,16.27,18.31,0,*4C
1534676879.38,44019,23.06,74830.3,23.85,16.29,18.37,0,*48
1534676880.61,44020,23.06,74832.3,23.91,16.17,18.09,0,*47
1534676881.83,44021,23.06,74834.0,23.95,16.11,18.15,0,*49
1534676883.04,44022,23.13,74836.0,24.01,15.87,17.83,0,*4C
1534676884.3,44023,23.13,74832.8,24.05,15.37,17.31,0,*4B
1534676885.54,44024,23.13,74834.5,24.09,15.51,17.37,0,*46
1534676886.74,44025,23.06,74830.3,24.13,14.89,16.73,0,*49
1534676887.95,44026,23.13,74834.5,24.17,15.19,16.89,0,*43
1534676889.2,44027,23.13,74832.3,24.19,13.35,15.01,0,*47
1534676890.42,44028,23.06,74834.0,24.19,12.47,14.09,0,*45
1534676891.65,44029,23.06,74834.3,24.19,12.51,14.09,0,*43
1534676892.89,44030,23.06,74830.3,24.19,12.73,14.29,0,*49
1534676894.14,44031,23.06,74828.5,24.19,13.15,14.59,0,*4E
1534676895.36,44032,23.13,74832.8,24.21,13.69,15.05,0,*45
1534676896.56,44033,23.13,74834.3,24.21,14.51,15.91,0,*45
1534676897.8,44034,23.06,74830.5,24.25,16.17,17.59,0,*40
1534676899.04,44035,23.13,74834.8,24.31,16.53,17.85,0,*45
1534676900.26,44036,23.06,74828.0,24.39,16.95,18.21,0,*45
1534676901.49,44037,23.13,74832.5,24.43,17.57,18.87,0,*4A
1534676902.76,44038,23.13,74832.3,24.53,16.33,17.63,0,*42
1534676903.98,44039,23.06,74832.3,24.53,15.31,16.53,0,*40
1534676905.23,44040,23.06,74828.5,24.55,14.79,15.97,0,*4E
1534676906.45,44041,23.13,74830.5,24.57,14.35,15.61,0,*4C
1534676907.67,44042,23.06,74830.8,24.61,14.85,16.11,0,*45
1534676908.86,44043,23.13,74832.3,24.63,15.77,16.95,0,*46
1534676910.1,44044,23.06,74830.5,24.65,16.27,17.47,0,*4F
1534676911.36,44045,23.06,74828.5,24.69,16.57,17.73,0,*42
1534676912.55,44046,23.06,74830.5,24.75,16.65,17.75,0,*4B
1534676913.81,44047,23.13,74830.3,24.79,16.73,17.85,0,*4E
1534676915.03,44048,23.13,74832.0,24.83,17.09,18.09,0,*43
1534676916.27,44049,23.06,74828.5,24.87,17.11,18.17,0,*40